MM1PTT-13 Weather Reports


time (UTC)temp
F
wind
direction
speed
knots
gust
knots
rain 1hr
in
rain 24hr
in
rain mn
in
humidity
%
barometer
mb
20260508014043 48 74 0.0 0.0 0.01 0.00 0.02 86 983.1
20260508013543 48 270 0.9 1.7 0.01 0.00 0.02 86 983.1
20260508013043 48 240 2.6 4.3 0.01 0.00 0.02 86 983.1
20260508012542 48 179 1.7 3.5 0.01 0.00 0.02 86 983.1
20260508012043 48 198 0.0 0.9 0.01 0.00 0.02 86 983.1
20260508011544 48 298 0.9 1.7 0.01 0.00 0.02 86 983.1
20260508011043 48 264 0.9 1.7 0.01 0.00 0.02 86 982.7
20260508010543 48 265 0.0 0.9 0.01 0.00 0.02 87 983.1
20260508010042 48 85 0.0 0.9 0.01 0.00 0.02 86 983.1
20260508005543 48 259 0.9 1.7 0.01 0.00 0.02 86 982.7
20260508005042 48 91 1.7 1.7 0.01 0.00 0.02 86 983.1
20260508004543 48 326 0.0 0.9 0.01 0.00 0.02 86 983.1
20260508004043 48 161 0.9 1.7 0.00 0.00 0.02 85 983.1
20260508003543 49 345 0.0 0.0 0.00 0.00 0.02 84 983.1
20260508003043 49 253 1.7 2.6 0.00 0.00 0.01 83 983.1
20260508002542 49 214 0.9 1.7 0.00 0.00 0.00 82 983.1
20260508002042 49 290 0.0 0.9 0.00 0.00 0.00 81 983.1
20260508001542 49 133 0.0 0.9 0.00 0.00 0.00 80 983.1
20260508001042 50 86 0.9 1.7 0.00 0.00 0.00 79 983.1
20260508000542 50 266 0.9 1.7 0.00 0.00 0.00 78 983.1
20260508000043 50 270 0.9 1.7 0.00 0.00 0.00 75 983.1
20260507235543 50 279 1.7 2.6 0.00 0.00 0.00 75 983.1
20260507235042 50 162 1.7 1.7 0.00 0.00 0.00 75 982.7
20260507234542 50 212 1.7 2.6 0.00 0.00 0.00 75 982.7
20260507234042 50 106 1.7 1.7 0.00 0.00 0.00 75 983.1
20260507233543 50 106 0.0 0.9 0.00 0.00 0.00 75 983.1
20260507233044 50 71 0.0 0.9 0.00 0.00 0.00 76 982.7
20260507232542 50 170 0.0 0.9 0.00 0.00 0.00 76 982.7
20260507232043 50 155 0.0 0.9 0.00 0.00 0.00 75 983.1
20260507231543 50 198 0.9 1.7 0.00 0.00 0.00 75 983.1
20260507231042 50 185 1.7 2.6 0.00 0.00 0.00 75 982.7
20260507230542 50 188 0.0 0.9 0.00 0.00 0.00 76 982.7
20260507230043 50 195 0.0 0.9 0.00 0.00 0.13 76 983.1
20260507225542 50 213 0.9 1.7 0.00 0.00 0.13 76 983.1
20260507225042 50 177 0.0 0.0 0.00 0.00 0.13 76 983.1
20260507224543 50 308 0.9 1.7 0.00 0.00 0.13 75 982.7
20260507224043 50 163 0.0 0.9 0.00 0.00 0.13 76 982.7
20260507223544 50 237 1.7 1.7 0.00 0.00 0.13 76 983.1
20260507223042 50 131 3.5 4.3 0.00 0.00 0.13 76 982.7
20260507222543 50 242 0.9 1.7 0.00 0.00 0.13 77 982.7
20260507222042 50 101 0.9 1.7 0.00 0.00 0.13 77 982.7
20260507221542 50 206 1.7 1.7 0.00 0.00 0.13 77 983.1
20260507221042 50 186 0.9 1.7 0.00 0.00 0.13 77 982.7
20260507220543 50 213 0.0 0.9 0.00 0.00 0.13 77 982.7
20260507220043 50 103 0.0 0.0 0.00 0.00 0.13 77 982.7
20260507215543 50 216 0.9 1.7 0.00 0.00 0.13 77 982.7
20260507215043 50 293 0.0 0.9 0.00 0.00 0.13 77 982.7
20260507214542 50 150 0.9 4.3 0.00 0.00 0.13 77 982.7
20260507214042 50 33 0.0 0.9 0.00 0.00 0.13 76 982.4
20260507213542 50 162 2.6 4.3 0.00 0.00 0.13 76 982.7
20260507213043 50 188 0.9 1.7 0.00 0.00 0.13 76 982.7
20260507212544 50 206 0.9 1.7 0.00 0.00 0.13 76 982.4
20260507212042 50 166 1.7 1.7 0.00 0.00 0.13 76 982.7
20260507211543 51 163 1.7 2.6 0.00 0.00 0.13 76 982.7
20260507211043 51 157 3.5 4.3 0.00 0.00 0.13 76 982.7
20260507210543 51 212 3.5 8.7 0.00 0.00 0.13 75 982.4
20260507210043 51 154 2.6 3.5 0.00 0.00 0.13 75 982.4
20260507205542 51 146 1.7 2.6 0.00 0.00 0.13 75 982.4
20260507205043 51 212 2.6 5.2 0.00 0.00 0.13 75 982.7
20260507204543 52 191 2.6 4.3 0.00 0.00 0.13 74 982.7
20260507203543 52 195 2.6 3.5 0.00 0.00 0.13 72 982.4
20260507203043 52 215 0.9 1.7 0.00 0.00 0.13 72 982.4
20260507202543 52 214 1.7 1.7 0.00 0.00 0.13 71 982.7
20260507202043 52 231 0.0 0.9 0.00 0.00 0.13 71 982.4
20260507201542 52 125 1.7 2.6 0.00 0.00 0.13 70 982.4
20260507201043 52 245 2.6 3.5 0.00 0.00 0.13 70 982.4
20260507200543 53 257 3.5 5.2 0.00 0.00 0.13 69 982.4
20260507200043 53 172 4.3 5.2 0.00 0.00 0.13 69 982.4
20260507195543 53 216 2.6 3.5 0.00 0.00 0.13 68 982.1
20260507195043 53 240 1.7 2.6 0.00 0.00 0.13 68 982.4
20260507194543 53 218 6.1 8.7 0.00 0.00 0.13 68 982.1
20260507194043 53 97 3.5 7.0 0.00 0.00 0.13 68 982.1
20260507193542 53 135 1.7 2.6 0.00 0.00 0.13 68 982.1
20260507192043 53 175 1.7 2.6 0.00 0.00 0.13 67 982.1
20260507191543 54 255 1.7 1.7 0.00 0.00 0.13 66 982.1
20260507190542 54 248 3.5 6.1 0.00 0.00 0.13 65 982.1
20260507190043 54 352 1.7 2.6 0.00 0.00 0.13 64 982.1
20260507185542 54 146 1.7 2.6 0.00 0.00 0.13 63 982.1
20260507185043 54 120 4.3 6.1 0.00 0.00 0.13 62 982.1
20260507184043 54 208 2.6 4.3 0.00 0.00 0.13 60 982.1
20260507183542 54 223 1.7 2.6 0.00 0.00 0.13 60 982.1
20260507183042 54 204 2.6 3.5 0.00 0.00 0.13 59 982.1
20260507182042 54 281 3.5 4.3 0.00 0.00 0.13 57 982.1
20260507181543 54 168 0.9 1.7 0.00 0.00 0.13 56 982.1
20260507181045 54 266 1.7 3.5 0.00 0.00 0.13 56 982.1
20260507180543 54 144 3.5 4.3 0.00 0.00 0.13 55 981.7
20260507180043 54 272 2.6 4.3 0.00 0.00 0.13 54 982.1
20260507175543 54 210 2.6 4.3 0.00 0.00 0.13 53 981.7
20260507175043 54 157 2.6 4.3 0.00 0.00 0.13 52 981.7
20260507174543 55 160 2.6 5.2 0.00 0.00 0.13 52 981.7
20260507174043 55 263 4.3 5.2 0.00 0.00 0.13 53 982.1
20260507173544 55 183 1.7 4.3 0.00 0.00 0.13 53 982.1
20260507173043 55 113 4.3 8.7 0.00 0.00 0.13 53 982.1
20260507172543 55 103 2.6 3.5 0.00 0.00 0.13 53 982.1
20260507172042 55 163 4.3 6.1 0.00 0.00 0.13 53 982.1
20260507171542 55 176 4.3 7.8 0.00 0.00 0.13 54 981.7
20260507171043 55 245 2.6 4.3 0.00 0.00 0.13 53 982.1
20260507170543 56 152 1.7 3.5 0.00 0.00 0.13 53 981.7
20260507170042 56 119 3.5 7.8 0.00 0.00 0.13 52 982.1
20260507165543 56 240 1.7 2.6 0.00 0.00 0.13 53 982.1
20260507165043 56 207 5.2 7.8 0.00 0.00 0.13 53 982.1
20260507164543 56 171 4.3 6.1 0.00 0.00 0.13 52 981.7
20260507164043 56 311 3.5 5.2 0.00 0.00 0.13 52 981.7
20260507163543 56 116 1.7 4.3 0.00 0.00 0.13 54 982.1
20260507163043 56 153 3.5 7.8 0.00 0.00 0.13 55 981.7
20260507162543 56 70 2.6 4.3 0.00 0.00 0.13 56 981.7
20260507162043 56 109 3.5 5.2 0.00 0.00 0.13 55 981.7
20260507161543 56 221 4.3 8.7 0.00 0.00 0.13 56 981.7
20260507161043 56 172 2.6 2.6 0.00 0.00 0.13 59 982.1
20260507160544 56 213 3.5 5.2 0.00 0.00 0.13 59 981.7
20260507160042 56 270 7.0 8.7 0.00 0.00 0.13 60 981.7
20260507155542 56 271 2.6 6.1 0.00 0.00 0.13 64 982.1
20260507155043 56 177 3.5 6.1 0.00 0.00 0.13 66 981.7
20260507154543 56 261 4.3 7.0 0.00 0.00 0.13 66 982.1
20260507154043 56 210 1.7 2.6 0.00 0.00 0.13 67 982.1
20260507153543 57 175 4.3 8.7 0.00 0.00 0.13 65 982.1
20260507153043 58 257 3.5 5.2 0.00 0.00 0.13 66 982.1
20260507152543 58 228 4.3 6.1 0.00 0.00 0.13 66 982.1
20260507152043 58 243 4.3 6.1 0.00 0.00 0.13 65 982.1
20260507151543 56 267 3.5 4.3 0.00 0.00 0.13 69 982.1
20260507151043 56 171 2.6 3.5 0.00 0.00 0.13 69 982.1
20260507150544 54 231 6.1 7.8 0.00 0.00 0.13 72 982.1
20260507150043 54 121 2.6 4.3 0.00 0.00 0.13 77 982.1
20260507145542 54 312 0.9 1.7 0.00 0.00 0.13 77 982.4
20260507145045 54 248 2.6 5.2 0.01 0.00 0.13 77 982.4
20260507144544 54 332 5.2 7.0 0.01 0.00 0.13 77 982.4
20260507144043 55 181 0.9 1.7 0.01 0.00 0.13 78 982.1
20260507143542 55 235 1.7 3.5 0.02 0.00 0.13 78 982.1
20260507143043 55 241 2.6 3.5 0.02 0.00 0.13 79 982.1
20260507142548 54 128 1.7 3.5 0.02 0.00 0.13 81 982.4
20260507142043 54 191 2.6 4.3 0.03 0.00 0.13 81 982.4
20260507141543 54 158 1.7 2.6 0.03 0.00 0.13 82 982.4
20260507141043 53 165 2.6 6.1 0.03 0.00 0.13 82 982.4
20260507140544 53 135 4.3 6.1 0.03 0.00 0.13 82 982.4
20260507140044 53 125 2.6 4.3 0.03 0.00 0.13 82 982.4
20260507135543 53 1 1.7 3.5 0.04 0.00 0.13 82 982.7
20260507135043 53 157 2.6 4.3 0.04 0.00 0.13 83 982.7
20260507134543 53 137 2.6 3.5 0.04 0.00 0.13 82 982.7
20260507134043 53 218 2.6 3.5 0.04 0.00 0.13 82 982.7
20260507133056 52 189 1.7 2.6 0.04 0.00 0.13 83 982.7
20260507132544 51 6 0.9 1.7 0.04 0.00 0.13 85 982.7
20260507132043 51 145 1.7 2.6 0.03 0.00 0.13 86 982.7
20260507131544 50 249 2.6 3.5 0.03 0.00 0.13 86 983.1
20260507131043 50 259 1.7 2.6 0.03 0.00 0.12 84 983.1
20260507130543 51 45 2.6 4.3 0.03 0.00 0.09 82 982.7
20260507130043 50 37 0.9 1.7 0.02 0.00 0.09 82 982.7
20260507125543 51 230 4.3 11.3 0.02 0.00 0.08 85 983.1
20260507125043 51 84 1.7 2.6 0.01 0.00 0.07 85 983.1
20260507124543 51 356 0.9 1.7 0.01 0.00 0.05 84 983.1
20260507124044 50 240 0.0 0.9 0.00 0.00 0.04 82 983.1
20260507123543 53 157 1.7 1.7 0.00 0.00 0.00 77 982.7
20260507123043 53 258 6.1 8.7 0.00 0.00 0.00 71 982.7
20260507122543 53 280 5.2 8.7 0.00 0.00 0.00 70 982.7
20260507122043 53 67 1.7 1.7 0.00 0.00 0.00 72 982.7
20260507121544 54 32 7.0 10.4 0.00 0.00 0.00 69 983.1
20260507121044 54 174 3.5 5.2 0.00 0.00 0.00 68 982.7
20260507120543 54 167 5.2 7.8 0.00 0.00 0.00 68 982.7
20260507120043 54 285 0.9 1.7 0.00 0.00 0.00 68 982.7
20260507115543 54 277 2.6 4.3 0.00 0.00 0.00 67 982.7
20260507115043 54 233 3.5 6.1 0.00 0.00 0.00 67 982.7
20260507114543 54 319 6.1 10.4 0.00 0.00 0.00 67 982.7
20260507114047 55 193 2.6 4.3 0.00 0.00 0.00 67 982.7
20260507113543 55 227 0.0 0.9 0.00 0.00 0.00 68 982.7
20260507113048 55 155 2.6 4.3 0.00 0.00 0.00 68 982.7
20260507112542 55 203 4.3 8.7 0.00 0.00 0.00 67 983.1
20260507112042 55 162 1.7 1.7 0.00 0.00 0.00 67 982.7
20260507111543 54 279 5.2 7.8 0.00 0.00 0.00 68 983.1
20260507111043 54 198 3.5 5.2 0.00 0.00 0.00 69 983.1
20260507110542 54 130 5.2 7.0 0.00 0.00 0.00 69 983.1
20260507110045 54 43 6.1 8.7 0.00 0.00 0.00 69 982.7
20260507105544 54 277 3.5 4.3 0.00 0.00 0.00 69 983.1
20260507105042 53 170 7.0 8.7 0.00 0.00 0.00 69 983.4
20260507104542 53 304 3.5 7.0 0.00 0.00 0.00 69 983.1
20260507104043 54 222 3.5 6.1 0.00 0.00 0.00 69 983.1
20260507103542 54 140 5.2 6.1 0.00 0.00 0.00 68 983.1
20260507103042 54 219 5.2 8.7 0.00 0.00 0.00 68 983.1
20260507102542 53 137 2.6 4.3 0.00 0.00 0.00 69 983.1
20260507102045 53 226 5.2 8.7 0.00 0.00 0.00 69 983.1
20260507101543 53 76 1.7 3.5 0.00 0.00 0.00 69 983.1
20260507101046 53 132 3.5 4.3 0.00 0.00 0.00 69 983.1
20260507100542 53 186 2.6 3.5 0.00 0.00 0.00 69 983.1
20260507100042 52 171 4.3 5.2 0.00 0.00 0.00 69 983.1
20260507095543 52 320 3.5 5.2 0.00 0.00 0.00 70 983.1
20260507095042 52 210 2.6 4.3 0.00 0.00 0.00 70 983.1
20260507094543 52 201 2.6 4.3 0.00 0.00 0.00 70 983.1
20260507094042 51 97 1.7 3.5 0.00 0.00 0.00 70 983.1
20260507093543 52 172 2.6 4.3 0.00 0.00 0.00 71 983.1
20260507093043 51 22 0.0 0.9 0.00 0.00 0.00 72 983.1
20260507092543 51 149 1.7 2.6 0.00 0.00 0.00 72 983.1
20260507092043 50 191 2.6 3.5 0.00 0.00 0.00 72 983.1
20260507091543 50 131 3.5 4.3 0.00 0.00 0.00 73 983.1
20260507091045 50 276 1.7 4.3 0.00 0.00 0.00 74 983.1
20260507090543 50 260 1.7 1.7 0.00 0.00 0.00 74 983.1
20260507090043 50 117 0.9 1.7 0.00 0.00 0.00 74 983.1
20260507085543 50 228 1.7 2.6 0.00 0.00 0.00 73 983.1
20260507085043 50 243 1.7 2.6 0.00 0.00 0.00 73 983.1
20260507084543 50 245 1.7 3.5 0.00 0.00 0.00 73 983.1
20260507084043 50 204 0.0 0.9 0.00 0.00 0.00 72 983.1
20260507083543 51 137 1.7 1.7 0.00 0.00 0.00 72 983.1
20260507083043 51 206 1.7 3.5 0.00 0.00 0.00 72 983.1
20260507082543 50 155 0.9 1.7 0.00 0.00 0.00 73 983.4
20260507082042 50 270 1.7 1.7 0.00 0.00 0.00 74 983.1
20260507081542 49 44 0.0 0.9 0.00 0.00 0.00 76 983.1
20260507081042 49 22 1.7 2.6 0.00 0.00 0.00 75 983.1
20260507080543 49 70 1.7 1.7 0.00 0.00 0.00 75 983.1
20260507080042 48 56 2.6 2.6 0.00 0.00 0.00 75 983.1
20260507075543 48 26 0.9 1.7 0.00 0.00 0.00 76 983.4
20260507075044 48 52 1.7 1.7 0.00 0.00 0.00 76 983.1
20260507074542 47 41 1.7 1.7 0.00 0.00 0.00 76 983.4
20260507074043 47 60 0.9 1.7 0.00 0.00 0.00 76 983.4
20260507073542 47 58 0.0 0.9 0.00 0.00 0.00 77 983.4
20260507073042 47 44 1.7 1.7 0.00 0.00 0.00 76 983.4
20260507072543 47 61 0.9 1.7 0.00 0.00 0.00 76 983.4
20260507072044 47 33 0.9 1.7 0.00 0.00 0.00 77 983.1
20260507071543 46 47 1.7 1.7 0.00 0.00 0.00 78 983.4
20260507071043 46 77 2.6 2.6 0.00 0.00 0.00 78 983.1
20260507070547 46 27 2.6 2.6 0.00 0.00 0.00 78 983.1
20260507070042 46 24 0.9 0.9 0.00 0.00 0.00 78 983.1
20260507065543 45 26 2.6 2.6 0.00 0.00 0.00 79 983.1
20260507065042 45 9 1.7 1.7 0.00 0.00 0.00 78 983.4
20260507064542 45 32 1.7 1.7 0.00 0.00 0.00 79 983.1
20260507064043 45 77 0.0 0.9 0.00 0.00 0.00 78 983.1
20260507063542 45 47 2.6 2.6 0.00 0.00 0.00 78 983.1
20260507063044 45 63 1.7 1.7 0.00 0.00 0.00 78 983.1
20260507062542 44 57 1.7 1.7 0.00 0.00 0.00 77 983.4
20260507062043 44 54 1.7 2.6 0.00 0.00 0.00 77 983.4
20260507061544 44 43 2.6 2.6 0.00 0.00 0.00 77 983.4
20260507061043 44 33 1.7 1.7 0.00 0.00 0.00 78 983.4
20260507060542 44 11 0.9 1.7 0.00 0.00 0.00 78 983.4
20260507060043 44 62 0.0 0.9 0.00 0.00 0.00 79 983.4
20260507055543 44 68 0.9 1.7 0.00 0.00 0.00 79 983.1
20260507055042 44 34 1.7 1.7 0.00 0.00 0.00 79 983.1
20260507054543 44 26 0.0 0.0 0.00 0.00 0.00 78 983.4
20260507054043 44 352 0.9 1.7 0.00 0.00 0.00 77 983.4
20260507053542 44 55 0.9 1.7 0.00 0.00 0.00 78 983.4
20260507053043 43 53 0.0 0.0 0.00 0.00 0.00 80 983.4
20260507052544 43 78 0.9 0.9 0.00 0.00 0.00 80 983.4
20260507052043 43 120 0.0 0.9 0.00 0.00 0.00 80 983.4
20260507051543 42 53 0.0 0.0 0.00 0.00 0.00 80 983.4
20260507051043 42 66 0.0 0.0 0.00 0.00 0.00 80 983.1
20260507050543 42 67 0.0 0.9 0.00 0.00 0.00 80 983.4
20260507050043 42 97 0.0 0.9 0.00 0.00 0.00 79 983.4
20260507045542 42 80 0.0 0.0 0.00 0.00 0.00 79 983.4
20260507045042 42 88 0.0 0.9 0.00 0.00 0.00 78 983.4
20260507044542 43 29 0.9 1.7 0.00 0.00 0.00 78 983.4
20260507044043 43 53 0.9 1.7 0.00 0.00 0.00 77 983.4
20260507043544 43 74 0.0 0.0 0.00 0.00 0.00 77 983.4
20260507043042 43 41 0.0 0.9 0.00 0.00 0.00 76 983.4
20260507042542 44 36 1.7 1.7 0.00 0.00 0.00 76 983.4
20260507042042 45 74 1.7 1.7 0.00 0.00 0.00 75 983.4
20260507041542 45 71 0.0 0.9 0.00 0.00 0.00 74 983.1
20260507041043 45 118 0.9 1.7 0.00 0.00 0.00 74 983.4
20260507040544 45 163 1.7 2.6 0.00 0.00 0.00 74 983.4
20260507040043 45 105 0.0 0.9 0.00 0.00 0.00 74 983.4
20260507035542 45 85 1.7 1.7 0.00 0.00 0.00 74 983.7
20260507035042 45 137 0.9 1.7 0.00 0.00 0.00 74 983.4
20260507034543 45 251 0.9 1.7 0.00 0.00 0.00 73 983.4
20260507034043 45 69 0.9 1.7 0.00 0.00 0.00 73 983.4
20260507033542 45 107 2.6 3.5 0.00 0.00 0.00 73 983.4
20260507033042 45 139 0.9 1.7 0.00 0.00 0.00 73 983.4
20260507032542 45 270 3.5 5.2 0.00 0.00 0.00 72 983.7
20260507032043 45 218 4.3 5.2 0.00 0.00 0.00 73 983.4
20260507031544 44 167 1.7 1.7 0.00 0.00 0.00 74 983.7
20260507031043 43 146 0.9 1.7 0.00 0.00 0.00 76 983.7
20260507030543 43 44 0.0 0.0 0.00 0.00 0.00 76 983.7
20260507030045 43 114 0.0 0.0 0.00 0.00 0.00 76 983.7
20260507025543 43 78 0.0 0.9 0.00 0.00 0.00 76 983.7
20260507025042 43 73 0.0 0.9 0.00 0.00 0.00 76 984.1
20260507024543 43 58 0.0 0.9 0.00 0.00 0.00 75 983.7
20260507024044 43 84 0.0 0.0 0.00 0.00 0.00 75 983.7
20260507023543 43 71 0.9 1.7 0.00 0.00 0.00 75 983.7
20260507023043 43 49 0.0 0.9 0.00 0.00 0.00 75 983.7
20260507022543 43 38 0.9 1.7 0.00 0.00 0.00 75 983.7
20260507022042 43 58 0.0 0.9 0.00 0.00 0.00 74 984.1
20260507021543 43 42 0.0 0.0 0.00 0.00 0.00 74 984.1
20260507021043 43 49 0.0 0.0 0.00 0.00 0.00 73 984.1
20260507020543 43 48 0.9 1.7 0.00 0.00 0.00 74 984.1
20260507020042 43 1 0.0 0.0 0.00 0.00 0.00 73 984.1
20260507015543 43 56 0.9 1.7 0.00 0.00 0.00 73 984.1
20260507015043 44 44 0.0 0.0 0.00 0.00 0.00 72 984.1
20260507014542 44 46 0.0 0.9 0.00 0.00 0.00 72 984.1